sat.trackr.live / text

‹ back to catalog

STARLINK-34890

NORAD 65760 · 2025-216AC

PAYLOAD ACTIVE UNKNOWN

§ Identity

Operator
Country
US
Launch date
2025-09-25
Launch site
AFETR
Launch vehicle
Mass (kg)
RCS (m²)

Purposes: comms

External: N2YO · Heavens-Above · Gunter

§ Orbital elements

Epoch: 2026-05-24T22:29:11.059584Z

Period
94.10 min
Inclination
53.1622°
Eccentricity
0.0001054
Mean motion
15.30208678 rev/d
Perigee alt
474.5 km
Apogee alt
475.9 km
Semi-major
6,853.3 km
B*
4.2355e-4
RAAN
338.2814°
Arg perigee
85.9828°
Mean anomaly
274.1294°
Rev number
3,821

§ Raw data

STARLINK-348901 65760U 25216AC  26144.93693356  .00012209  00000+0  42355-3 0  99962 65760  53.1622 338.2814 0001054  85.9828 274.1294 15.30208678 38217

JSON: /api/v1/satellites/65760 · /tle

For live sub-satellite position, see the globe view (requires WebGL).

§ Visibility from observer

Set your observer location to see the next 7 days of passes ≥ 10°. The values pass through the URL so the page stays shareable.

No JS? Fill the form by hand. The geolocation button needs JavaScript.